Saint Paul Island, AK

10:24 AM AKDT on October 20, 2017 (GMT -0800)
Saint Paul Island

Weather History for PASN - October, 2013

Change the Weather History Date:

Tuesday, October 29, 2013

  Actual Average Record
Temperature  
Mean Temperature 36 °F 36 °F  
Max Temperature 42 °F 40 °F 46 °F (2003)
Min Temperature 30 °F 32 °F 15 °F (1983)
Degree Days  
Heating Degree Days 29 29  
Month to date heating degree days 687 759  
Since 1 July heating degree days 2322 2402  
Cooling Degree Days 0 0  
Month to date cooling degree days 0 0  
Year to date cooling degree days 0 0  
Moisture  
Dew Point 36 °F    
Average Humidity 0    
Maximum Humidity 0    
Minimum Humidity 0    
Precipitation  
Precipitation T in 0.10 in 0.88 in (1995)
Month to date precipitation 3.33 2.91  
Year to date precipitation 20.37 18.33  
Snow  
Snow 0.00 in 0.10 in 2.00 in (1971)
Month to date snowfall T 1.7  
Since 1 July snowfall T 1.7  
Since 1 September snowfall 0.0 1.7  
Snow Depth 0.00 in    
Sea Level Pressure  
Sea Level Pressure 29.27 in    
Wind  
Wind Speed 8 mph (West)    
Max Wind Speed 17 mph    
Max Gust Speed 21 mph    
Visibility 9 miles    
Events Rain    
T = Trace of Precipitation, MM = Missing Value Source: NWS Daily Summary

Daily Weather History Graph

Daily Weather History Graph

Search for Another Location

Airport or City:

Trip Planner

Search our weather history database for the weather conditions in past years. The results will help you decide how hot, cold, wet, or windy it might be!

Date:

Astronomy

Oct. 29, 2013 Rise Set
Actual Time 10:26 AM AKDT 7:41 PM AKDT
Civil Twilight 9:45 AM AKDT 8:22 PM AKDT
Nautical Twilight 9:00 AM AKDT 9:07 PM AKDT
Astronomical Twilight 8:16 AM AKDT 9:51 PM AKDT
Moon 4:33 AM AKDT (10/29) 5:51 PM AKDT (10/29)
Length of Visible Light 10h 36m
Length of Day
9h 15m
Waning Crescent, 24% of the Moon is Illuminated
Oct 29
Waning Crescent
Nov 3
New
Nov 9
First Quarter
Nov 17
Full
Nov 25
Last Quarter

Hourly Weather History & Observations

Time (AKDT) Temp. Windchill Dew Point Humidity Pressure Visibility Wind Dir Wind Speed Gust Speed Precip Events Conditions
12:51 AM 39.2 °F 32.0 °F 37.4 °F 93% 29.29 in 10.0 mi SSE 11.5 mph - N/A   Mostly Cloudy
12:53 AM 39.9 °F 32.5 °F 37.9 °F 93% 29.29 in 10.0 mi SSE 12.7 mph - N/A   Mostly Cloudy
1:53 AM 39.9 °F 33.9 °F 39.0 °F 97% 29.29 in 10.0 mi South 9.2 mph - N/A   Overcast
2:25 AM 39.2 °F 32.5 °F 37.4 °F 93% 29.28 in 10.0 mi South 10.4 mph - N/A   Mostly Cloudy
2:53 AM 39.9 °F 33.4 °F 39.0 °F 97% 29.28 in 10.0 mi South 10.4 mph - N/A   Mostly Cloudy
3:16 AM 39.2 °F 33.6 °F 39.2 °F 100% 29.28 in 10.0 mi South 8.1 mph - N/A   Overcast
3:26 AM 39.2 °F 33.0 °F 39.2 °F 100% 29.28 in 10.0 mi South 9.2 mph - N/A   Overcast
3:53 AM 39.9 °F 35.1 °F 39.0 °F 97% 29.28 in 10.0 mi SSW 6.9 mph - N/A   Mostly Cloudy
4:06 AM 39.2 °F 32.5 °F 39.2 °F 100% 29.27 in 9.0 mi South 10.4 mph - N/A   Overcast
4:53 AM 39.0 °F 35.7 °F 39.0 °F 100% 29.27 in 10.0 mi WSW 4.6 mph - 0.00 in   Overcast
5:18 AM 39.2 °F 37.0 °F 39.2 °F 100% 29.26 in 9.0 mi South 3.5 mph - N/A   Overcast
5:53 AM 39.0 °F - 39.0 °F 100% 29.26 in 10.0 mi Calm Calm - N/A   Overcast
6:45 AM 37.4 °F - 37.4 °F 100% 29.26 in 10.0 mi Calm Calm - 0.00 in   Overcast
6:53 AM 37.0 °F - 37.0 °F 100% 29.26 in 10.0 mi Calm Calm - 0.00 in   Overcast
7:29 AM 37.4 °F 34.9 °F 37.4 °F 100% 29.26 in 10.0 mi WNW 3.5 mph - N/A   Mostly Cloudy
7:53 AM 37.0 °F 34.5 °F 36.0 °F 96% 29.26 in 10.0 mi WNW 3.5 mph - N/A   Mostly Cloudy
8:17 AM 39.2 °F 35.0 °F 37.4 °F 93% 29.26 in 6.0 mi NW 5.8 mph - 0.00 in Rain Light Rain
8:28 AM 37.4 °F 32.1 °F 37.4 °F 100% 29.26 in 10.0 mi WNW 6.9 mph - 0.00 in   Overcast
8:35 AM 37.4 °F 31.4 °F 35.6 °F 93% 29.26 in 10.0 mi WNW 8.1 mph - 0.00 in   Overcast
8:53 AM 37.9 °F 31.5 °F 36.0 °F 93% 29.26 in 10.0 mi WNW 9.2 mph - 0.00 in   Overcast
9:18 AM 37.4 °F 30.8 °F 37.4 °F 100% 29.26 in 7.0 mi WNW 9.2 mph - N/A   Overcast
9:27 AM 39.2 °F 32.0 °F 37.4 °F 93% 29.26 in 4.0 mi WNW 11.5 mph - 0.00 in Rain Light Rain
9:42 AM 37.4 °F 29.8 °F 37.4 °F 100% 29.26 in 9.0 mi WNW 11.5 mph - 0.00 in   Overcast
9:53 AM 37.9 °F 30.5 °F 37.0 °F 97% 29.27 in 10.0 mi WNW 11.5 mph - 0.00 in   Overcast
10:06 AM 37.4 °F 30.8 °F 37.4 °F 100% 29.27 in 8.0 mi WNW 9.2 mph - N/A   Overcast
10:16 AM 37.4 °F 30.3 °F 37.4 °F 100% 29.27 in 7.0 mi WNW 10.4 mph - N/A   Overcast
10:53 AM 37.9 °F 31.5 °F 37.0 °F 97% 29.28 in 8.0 mi NW 9.2 mph - N/A   Overcast
11:01 AM 37.4 °F 30.8 °F 37.4 °F 100% 29.28 in 5.0 mi WNW 9.2 mph - N/A   Overcast
11:26 AM 37.4 °F 30.8 °F 37.4 °F 100% 29.28 in 7.0 mi NW 9.2 mph - 0.01 in   Overcast
11:53 AM 37.9 °F 30.9 °F 37.0 °F 97% 29.29 in 10.0 mi NW 10.4 mph - 0.01 in   Overcast
12:53 PM 39.0 °F 31.0 °F 36.0 °F 89% 29.29 in 10.0 mi WNW 13.8 mph - N/A   Overcast
1:53 PM 39.0 °F 31.4 °F 36.0 °F 89% 29.29 in 10.0 mi NW 12.7 mph - N/A   Overcast
2:16 PM 37.4 °F 28.9 °F 35.6 °F 93% 29.28 in 10.0 mi WNW 13.8 mph - 0.00 in   Overcast
2:26 PM 39.2 °F 30.8 °F 35.6 °F 87% 29.28 in 10.0 mi WNW 15.0 mph - 0.00 in   Mostly Cloudy
2:37 PM 39.2 °F 31.6 °F 35.6 °F 87% 29.28 in 10.0 mi WNW 12.7 mph - 0.00 in   Overcast
2:53 PM 37.9 °F 31.5 °F 35.1 °F 89% 29.29 in 10.0 mi WNW 9.2 mph - 0.00 in Rain Light Rain
3:11 PM 39.2 °F 30.8 °F 35.6 °F 87% 29.28 in 10.0 mi West 15.0 mph 20.7 mph 0.00 in   Overcast
3:39 PM 39.2 °F 32.0 °F 33.8 °F 81% 29.27 in 10.0 mi WNW 11.5 mph - 0.00 in   Overcast
3:53 PM 41.0 °F 33.1 °F 35.1 °F 79% 29.27 in 10.0 mi West 15.0 mph - 0.00 in   Overcast
4:16 PM 41.0 °F 33.1 °F 33.8 °F 76% 29.27 in 10.0 mi West 15.0 mph - N/A   Overcast
4:27 PM 39.2 °F 30.5 °F 33.8 °F 81% 29.27 in 10.0 mi West 16.1 mph - N/A   Mostly Cloudy
4:53 PM 39.0 °F 30.3 °F 33.1 °F 79% 29.27 in 8.0 mi West 16.1 mph - 0.00 in Rain Light Rain
5:53 PM 37.9 °F 29.2 °F 30.9 °F 76% 29.27 in 10.0 mi West 15.0 mph - 0.00 in   Partly Cloudy
6:53 PM 36.0 °F 29.0 °F 30.0 °F 79% 29.27 in 10.0 mi West 9.2 mph - N/A   Partly Cloudy
7:53 PM 34.0 °F 26.6 °F 30.0 °F 85% 29.27 in 10.0 mi West 9.2 mph - N/A   Clear
8:53 PM 32.0 °F 24.8 °F 28.0 °F 85% 29.28 in 10.0 mi West 8.1 mph - N/A   Clear
9:53 PM 32.0 °F 26.4 °F 28.9 °F 88% 29.28 in 10.0 mi West 5.8 mph - N/A   Clear
10:53 PM 32.0 °F 25.6 °F 30.9 °F 96% 29.28 in 10.0 mi WNW 6.9 mph - 0.00 in   Partly Cloudy
11:53 PM 32.0 °F - 32.0 °F 100% 29.29 in 10.0 mi Calm Calm - 0.00 in   Partly Cloudy